Time,TemperatureF,DewpointF,PressureIn,WindDirection,WindDirectionDegrees,WindSpeedMPH,WindSpeedGustMPH,Humidity,HourlyPrecipIn,Conditions,Clouds,dailyrainin,SoftwareType,DateUTC
2013-04-05 00:24:00,43.9,30.9,29.94,ESE,112,1.7,-999.0,60,-99.99,,,0.00,Acu-Link.com,2013-04-05 05:24:00,
2013-04-05 00:39:00,43.5,30.5,29.94,ENE,67,0.0,-999.0,60,-99.99,,,0.00,Acu-Link.com,2013-04-05 05:39:00,
2013-04-05 00:54:00,42.1,30.8,29.95,NE,45,1.7,-999.0,64,-99.99,,,0.00,Acu-Link.com,2013-04-05 05:54:00,
2013-04-05 01:10:00,41.7,30.4,29.95,ENE,67,3.7,-999.0,64,-99.99,,,0.00,Acu-Link.com,2013-04-05 06:10:00,
2013-04-05 01:25:00,43.9,30.9,29.95,ENE,67,4.7,-999.0,60,-99.99,,,0.00,Acu-Link.com,2013-04-05 06:25:00,
2013-04-05 01:40:00,43.2,30.7,29.96,NE,45,3.7,-999.0,61,-99.99,,,0.00,Acu-Link.com,2013-04-05 06:40:00,
2013-04-05 01:55:00,41.7,30.4,29.96,NE,45,2.7,-999.0,64,-99.99,,,0.00,Acu-Link.com,2013-04-05 06:55:00,
2013-04-05 02:11:00,41.2,30.3,29.96,ENE,67,3.7,-999.0,65,-99.99,,,0.00,Acu-Link.com,2013-04-05 07:11:00,
2013-04-05 02:26:00,40.5,30.4,29.96,ENE,67,3.2,-999.0,67,-99.99,,,0.00,Acu-Link.com,2013-04-05 07:26:00,
2013-04-05 02:41:00,40.3,30.2,29.96,ENE,67,3.7,-999.0,67,-99.99,,,0.00,Acu-Link.com,2013-04-05 07:41:00,
2013-04-05 02:57:00,40.6,30.5,29.96,East,90,6.3,-999.0,67,-99.99,,,0.00,Acu-Link.com,2013-04-05 07:57:00,
2013-04-05 03:13:00,40.5,30.8,29.97,ENE,67,7.3,-999.0,68,-99.99,,,0.00,Acu-Link.com,2013-04-05 08:13:00,
2013-04-05 03:28:00,40.1,30.8,29.96,ENE,67,4.2,-999.0,69,-99.99,,,0.00,Acu-Link.com,2013-04-05 08:28:00,
2013-04-05 03:43:00,39.6,30.6,29.96,East,90,4.7,-999.0,70,-99.99,,,0.00,Acu-Link.com,2013-04-05 08:43:00,
2013-04-05 03:58:00,38.7,30.5,29.95,ENE,67,5.3,-999.0,72,-99.99,,,0.00,Acu-Link.com,2013-04-05 08:58:00,
2013-04-05 04:44:00,37.0,30.2,29.97,East,90,5.3,-999.0,76,-99.99,,,0.00,Acu-Link.com,2013-04-05 09:44:00,
2013-04-05 04:59:00,36.9,30.1,29.97,ENE,67,4.2,-999.0,76,-99.99,,,0.00,Acu-Link.com,2013-04-05 09:59:00,
2013-04-05 05:14:00,36.3,29.8,29.97,ENE,67,3.7,-999.0,77,-99.99,,,0.00,Acu-Link.com,2013-04-05 10:14:00,
2013-04-05 05:30:00,36.0,29.8,29.98,NE,45,2.7,-999.0,78,-99.99,,,0.00,Acu-Link.com,2013-04-05 10:30:00,
2013-04-05 05:45:00,36.0,29.8,29.98,ENE,67,4.7,-999.0,78,-99.99,,,0.00,Acu-Link.com,2013-04-05 10:45:00,
2013-04-05 06:00:00,35.6,29.4,29.99,ESE,112,2.7,-999.0,78,-99.99,,,0.00,Acu-Link.com,2013-04-05 11:00:00,
2013-04-05 06:15:00,35.4,29.5,29.99,ESE,112,3.7,-999.0,79,-99.99,,,0.00,Acu-Link.com,2013-04-05 11:15:00,
2013-04-05 06:30:00,34.2,29.0,29.99,NE,45,4.7,-999.0,81,-99.99,,,0.00,Acu-Link.com,2013-04-05 11:30:00,
2013-04-05 06:46:00,34.3,29.1,29.99,ENE,67,4.7,-999.0,81,-99.99,,,0.00,Acu-Link.com,2013-04-05 11:46:00,
2013-04-05 07:16:00,33.8,29.2,29.99,East,90,4.2,-999.0,83,-99.99,,,0.00,Acu-Link.com,2013-04-05 12:16:00,
2013-04-05 07:31:00,34.9,30.0,29.99,ENE,67,4.7,-999.0,82,-99.99,,,0.00,Acu-Link.com,2013-04-05 12:31:00,
2013-04-05 07:46:00,36.0,30.1,30.00,East,90,4.2,-999.0,79,-99.99,,,0.00,Acu-Link.com,2013-04-05 12:46:00,
2013-04-05 08:01:00,37.8,31.2,30.00,ESE,112,4.2,-999.0,77,-99.99,,,0.00,Acu-Link.com,2013-04-05 13:01:00,
2013-04-05 08:32:00,39.0,32.1,29.98,East,90,10.9,-999.0,76,-99.99,,,0.00,Acu-Link.com,2013-04-05 13:32:00,
2013-04-05 08:47:00,40.5,32.5,29.97,East,90,11.9,-999.0,73,-99.99,,,0.00,Acu-Link.com,2013-04-05 13:47:00,
2013-04-05 09:02:00,42.6,33.5,29.97,ESE,112,14.0,-999.0,70,-99.99,,,0.00,Acu-Link.com,2013-04-05 14:02:00,
2013-04-05 09:17:00,43.7,33.5,29.97,ESE,112,17.6,-999.0,67,-99.99,,,0.00,Acu-Link.com,2013-04-05 14:17:00,
2013-04-05 09:32:00,45.0,34.0,29.95,ESE,112,15.0,-999.0,65,-99.99,,,0.00,Acu-Link.com,2013-04-05 14:32:00,
2013-04-05 09:47:00,46.0,34.1,29.96,ESE,112,13.5,-999.0,63,-99.99,,,0.00,Acu-Link.com,2013-04-05 14:47:00,
2013-04-05 10:02:00,47.3,34.5,29.96,SE,135,9.4,-999.0,61,-99.99,,,0.00,Acu-Link.com,2013-04-05 15:02:00,
2013-04-05 10:18:00,49.3,35.2,29.96,SE,135,11.4,-999.0,58,-99.99,,,0.00,Acu-Link.com,2013-04-05 15:18:00,
2013-04-05 10:33:00,51.1,35.5,29.96,ESE,112,9.9,-999.0,55,-99.99,,,0.00,Acu-Link.com,2013-04-05 15:33:00,
2013-04-05 10:48:00,52.5,35.9,29.94,ESE,112,9.4,-999.0,53,-99.99,,,0.00,Acu-Link.com,2013-04-05 15:48:00,
2013-04-05 11:03:00,54.3,36.1,29.93,ESE,112,13.5,-999.0,50,-99.99,,,0.00,Acu-Link.com,2013-04-05 16:03:00,
2013-04-05 11:34:00,57.0,37.0,29.91,SSE,157,14.5,-999.0,47,-99.99,,,0.01,Acu-Link.com,2013-04-05 16:34:00,
2013-04-05 11:49:00,58.5,37.8,29.91,SSE,157,12.5,-999.0,46,-99.99,,,0.02,Acu-Link.com,2013-04-05 16:49:00,
2013-04-05 12:04:00,60.6,38.6,29.89,ESE,112,13.5,-999.0,44,-99.99,,,0.02,Acu-Link.com,2013-04-05 17:04:00,
2013-04-05 12:19:00,61.2,39.1,29.89,SE,135,10.4,-999.0,44,-99.99,,,0.02,Acu-Link.com,2013-04-05 17:19:00,
2013-04-05 12:35:00,61.5,38.8,29.88,SE,135,14.0,-999.0,43,-99.99,,,0.02,Acu-Link.com,2013-04-05 17:35:00,
2013-04-05 12:50:00,62.4,39.0,29.86,ESE,112,14.0,-999.0,42,-99.99,,,0.02,Acu-Link.com,2013-04-05 17:50:00,
2013-04-05 13:05:00,63.1,39.0,29.84,SE,135,14.0,-999.0,41,-99.99,,,0.02,Acu-Link.com,2013-04-05 18:05:00,
2013-04-05 13:20:00,65.3,39.7,29.83,SSE,157,13.0,-999.0,39,-99.99,,,0.02,Acu-Link.com,2013-04-05 18:20:00,
2013-04-05 13:35:00,64.9,40.0,29.83,SSE,157,20.7,-999.0,40,-99.99,,,0.02,Acu-Link.com,2013-04-05 18:35:00,
2013-04-05 13:50:00,65.8,39.5,29.82,South,180,16.1,-999.0,38,-99.99,,,0.02,Acu-Link.com,2013-04-05 18:50:00,
2013-04-05 14:20:00,68.5,41.2,29.79,ESE,112,10.9,-999.0,37,-99.99,,,0.03,Acu-Link.com,2013-04-05 19:20:00,
2013-04-05 14:51:00,69.4,39.8,29.76,SSE,157,23.8,-999.0,34,-99.99,,,0.03,Acu-Link.com,2013-04-05 19:51:00,
2013-04-05 15:06:00,71.1,40.5,29.74,South,180,17.6,-999.0,33,-99.99,,,0.03,Acu-Link.com,2013-04-05 20:06:00,
2013-04-05 15:21:00,71.2,40.6,29.74,ESE,112,16.6,-999.0,33,-99.99,,,0.03,Acu-Link.com,2013-04-05 20:21:00,
2013-04-05 15:52:00,70.5,40.0,29.70,SSE,157,14.0,-999.0,33,-99.99,,,0.07,Acu-Link.com,2013-04-05 20:52:00,
2013-04-05 16:07:00,72.7,39.5,29.67,ESE,112,17.6,-999.0,30,-99.99,,,0.07,Acu-Link.com,2013-04-05 21:07:00,
2013-04-05 16:22:00,72.1,35.3,29.67,SSW,202,16.1,-999.0,26,-99.99,,,0.07,Acu-Link.com,2013-04-05 21:22:00,
2013-04-05 16:52:00,72.9,37.0,29.65,SSE,157,17.6,-999.0,27,-99.99,,,0.07,Acu-Link.com,2013-04-05 21:52:00,
2013-04-05 17:07:00,71.8,36.0,29.64,SSE,157,14.0,-999.0,27,-99.99,,,0.11,Acu-Link.com,2013-04-05 22:07:00,
2013-04-05 17:23:00,72.3,35.5,29.64,SE,135,20.7,-999.0,26,-99.99,,,0.16,Acu-Link.com,2013-04-05 22:23:00,
2013-04-05 17:39:00,71.8,34.1,29.64,South,180,20.2,-999.0,25,-99.99,,,0.19,Acu-Link.com,2013-04-05 22:39:00,
2013-04-05 18:09:00,70.2,34.6,29.63,South,180,18.6,-999.0,27,-99.99,,,0.22,Acu-Link.com,2013-04-05 23:09:00,
2013-04-05 18:24:00,69.6,34.1,29.62,SSE,157,19.7,-999.0,27,-99.99,,,0.22,Acu-Link.com,2013-04-05 23:24:00,
2013-04-05 18:40:00,68.5,34.1,29.62,ESE,112,16.6,-999.0,28,-99.99,,,0.22,Acu-Link.com,2013-04-05 23:40:00,
2013-04-05 18:55:00,67.8,35.2,29.63,SSE,157,17.6,-999.0,30,-99.99,,,0.22,Acu-Link.com,2013-04-05 23:55:00,
2013-04-05 19:10:00,67.3,34.8,29.62,South,180,10.4,-999.0,30,-99.99,,,0.22,Acu-Link.com,2013-04-06 00:10:00,
2013-04-05 19:25:00,66.2,35.5,29.61,South,180,15.5,-999.0,32,-99.99,,,0.22,Acu-Link.com,2013-04-06 00:25:00,
2013-04-05 19:41:00,65.1,36.0,29.60,ESE,112,11.9,-999.0,34,-99.99,,,0.22,Acu-Link.com,2013-04-06 00:41:00,
2013-04-05 19:56:00,64.9,36.6,29.60,SSE,157,16.6,-999.0,35,-99.99,,,0.22,Acu-Link.com,2013-04-06 00:56:00,
2013-04-05 20:11:00,64.2,36.7,29.59,SSE,157,14.0,-999.0,36,-99.99,,,0.22,Acu-Link.com,2013-04-06 01:11:00,
2013-04-05 20:26:00,63.9,37.1,29.60,SE,135,15.5,-999.0,37,-99.99,,,0.22,Acu-Link.com,2013-04-06 01:26:00,
2013-04-05 20:41:00,62.6,36.6,29.59,SSE,157,8.3,-999.0,38,-99.99,,,0.22,Acu-Link.com,2013-04-06 01:41:00,
2013-04-05 20:56:00,61.9,37.3,29.58,ESE,112,8.3,-999.0,40,-99.99,,,0.22,Acu-Link.com,2013-04-06 01:56:00,
2013-04-05 21:12:00,61.3,37.4,29.58,SSE,157,10.4,-999.0,41,-99.99,,,0.22,Acu-Link.com,2013-04-06 02:12:00,
2013-04-05 21:27:00,61.2,37.9,29.58,SE,135,13.5,-999.0,42,-99.99,,,0.22,Acu-Link.com,2013-04-06 02:27:00,
2013-04-05 21:42:00,61.0,38.3,29.58,SSE,157,13.0,-999.0,43,-99.99,,,0.22,Acu-Link.com,2013-04-06 02:42:00,
2013-04-05 21:57:00,61.0,38.9,29.58,SSE,157,15.5,-999.0,44,-99.99,,,0.22,Acu-Link.com,2013-04-06 02:57:00,
2013-04-05 22:27:00,59.4,38.6,29.57,ESE,112,9.4,-999.0,46,-99.99,,,0.22,Acu-Link.com,2013-04-06 03:27:00,
2013-04-05 22:43:00,59.0,38.8,29.57,SE,135,13.5,-999.0,47,-99.99,,,0.22,Acu-Link.com,2013-04-06 03:43:00,
2013-04-05 22:58:00,58.5,39.4,29.56,SSE,157,11.9,-999.0,49,-99.99,,,0.22,Acu-Link.com,2013-04-06 03:58:00,
2013-04-05 23:13:00,58.5,39.9,29.55,SSE,157,13.0,-999.0,50,-99.99,,,0.22,Acu-Link.com,2013-04-06 04:13:00,
2013-04-05 23:44:00,58.3,39.7,29.55,South,180,13.5,-999.0,50,-99.99,,,0.22,Acu-Link.com,2013-04-06 04:44:00,